• In Belarus
  • List of Countries
  • For 7 days
  • Water Temperature
  • Satellite Maps
  • Weather Map
  • Weather Widgets
  • user-avatar
    Login

    Hourly Weather Chorbivka

    Today, 16 December, Saturday

    Time Temperature Precipitation Wind Pressure Humidity
    00:00 +5°C° 0 mm 4 mps 752 mmHg 93%
    01:00 +5°C° 0 mm 5 mps 752 mmHg 93%
    02:00 +4°C° 0 mm 3 mps 751 mmHg 94%
    03:00 +5°C° 0 mm 4 mps 751 mmHg 95%
    04:00 +5°C° 0 mm 5 mps 751 mmHg 95%
    05:00 +4°C° 0 mm 6 mps 751 mmHg 95%
    06:00 +5°C° 0 mm 6 mps 750 mmHg 94%
    07:00 +5°C° 0 mm 6 mps 750 mmHg 93%
    08:00 +5°C° 0 mm 7 mps 750 mmHg 92%
    09:00 +6°C° 0.5 mm 7 mps 749 mmHg 89%
    10:00 +8°C° 0.5 mm 7 mps 749 mmHg 87%
    11:00 +7°C° 0.5 mm 8 mps 749 mmHg 85%
    12:00 +9°C° 0 mm 8 mps 749 mmHg 79%
    13:00 +10°C° 0 mm 8 mps 748 mmHg 73%
    14:00 +11°C° 0 mm 8 mps 748 mmHg 67%
    15:00 +11°C° 0 mm 8 mps 748 mmHg 68%
    16:00 +11°C° 0 mm 8 mps 748 mmHg 70%
    17:00 +10°C° 0 mm 8 mps 748 mmHg 71%
    18:00 +10°C° 0 mm 8 mps 748 mmHg 74%
    19:00 +10°C° 0 mm 8 mps 748 mmHg 76%
    20:00 +10°C° 0 mm 8 mps 748 mmHg 79%
    21:00 +10°C° 0 mm 8 mps 748 mmHg 81%
    22:00 +10°C° 0 mm 8 mps 748 mmHg 82%
    23:00 +10°C° 0 mm 7 mps 749 mmHg 84%

    Tomorrow, 17 December, Sunday

    Time Temperature Precipitation Wind Pressure Humidity
    00:00 +10°C° 0 mm 7 mps 749 mmHg 85%
    01:00 +10°C° 0 mm 6 mps 749 mmHg 86%
    02:00 +10°C° 0 mm 6 mps 749 mmHg 86%
    03:00 +9°C° 0.2 mm 5 mps 750 mmHg 88%
    04:00 +9°C° 0.2 mm 5 mps 750 mmHg 90%
    05:00 +10°C° 0.2 mm 4 mps 750 mmHg 91%
    06:00 +8°C° 0.8 mm 4 mps 750 mmHg 91%
    07:00 +8°C° 0.8 mm 4 mps 751 mmHg 91%
    08:00 +7°C° 0.8 mm 4 mps 751 mmHg 90%
    09:00 +7°C° 1.1 mm 4 mps 751 mmHg 89%
    10:00 +6°C° 1.1 mm 4 mps 752 mmHg 88%
    11:00 +5°C° 1.1 mm 4 mps 752 mmHg 87%
    12:00 +5°C° 1.3 mm 4 mps 752 mmHg 87%
    13:00 +5°C° 1.3 mm 4 mps 752 mmHg 87%
    14:00 +4°C° 1.3 mm 4 mps 752 mmHg 87%
    15:00 +4°C° 1 mm 4 mps 752 mmHg 87%
    16:00 +4°C° 1 mm 4 mps 752 mmHg 87%
    17:00 +4°C° 1 mm 4 mps 752 mmHg 87%
    18:00 +4°C° 1.6 mm 4 mps 752 mmHg 88%
    19:00 +3°C° 1.6 mm 4 mps 752 mmHg 88%
    20:00 +3°C° 1.6 mm 4 mps 752 mmHg 89%
    21:00 +2°C° 0.9 mm 5 mps 752 mmHg 89%
    22:00 +2°C° 0.9 mm 5 mps 752 mmHg 89%
    23:00 +2°C° 0.9 mm 5 mps 751 mmHg 90%

    Day after tomorrow, 18 December, Monday

    Time Temperature Precipitation Wind Pressure Humidity
    00:00 +3°C° 1.1 mm 5 mps 751 mmHg 90%
    01:00 +3°C° 1.1 mm 5 mps 751 mmHg 91%
    02:00 +3°C° 1.1 mm 5 mps 751 mmHg 91%
    03:00 +3°C° 0.6 mm 5 mps 751 mmHg 91%
    04:00 +2°C° 0.6 mm 5 mps 751 mmHg 91%
    05:00 +2°C° 0.6 mm 5 mps 750 mmHg 91%
    06:00 +2°C° 0.3 mm 5 mps 750 mmHg 90%
    07:00 +2°C° 0.3 mm 5 mps 750 mmHg 90%
    08:00 +2°C° 0.3 mm 5 mps 750 mmHg 89%
    09:00 +2°C° 0.2 mm 5 mps 751 mmHg 89%
    10:00 +1°C° 0.2 mm 4 mps 751 mmHg 89%
    11:00 +1°C° 0.2 mm 4 mps 751 mmHg 88%
    12:00 +1°C° 0.1 mm 5 mps 751 mmHg 88%
    13:00 +1°C° 0.1 mm 5 mps 751 mmHg 87%
    14:00 +1°C° 0.1 mm 5 mps 751 mmHg 87%
    15:00 +1°C° 0 mm 5 mps 751 mmHg 86%
    16:00 0°C° 0 mm 5 mps 752 mmHg 86%
    17:00 -1°C° 0 mm 6 mps 752 mmHg 85%
    18:00 -1°C° 0 mm 6 mps 753 mmHg 85%
    19:00 -1°C° 0 mm 6 mps 753 mmHg 84%
    20:00 -2°C° 0 mm 6 mps 754 mmHg 84%
    21:00 -2°C° 0 mm 6 mps 754 mmHg 84%
    22:00 -2°C° 0 mm 6 mps 754 mmHg 84%
    23:00 -2°C° 0 mm 6 mps 755 mmHg 84%

    19 December, Tuesday

    Time Temperature Precipitation Wind Pressure Humidity
    00:00 -2°C° 0 mm 6 mps 755 mmHg 84%
    01:00 -2°C° 0 mm 6 mps 755 mmHg 83%
    02:00 -3°C° 0 mm 6 mps 756 mmHg 83%
    03:00 -3°C° 0 mm 6 mps 756 mmHg 83%
    04:00 -3°C° 0 mm 6 mps 756 mmHg 83%
    05:00 -3°C° 0 mm 6 mps 756 mmHg 83%
    06:00 -3°C° 0 mm 6 mps 757 mmHg 83%
    07:00 -3°C° 0 mm 6 mps 757 mmHg 82%
    08:00 -3°C° 0 mm 6 mps 758 mmHg 82%
    09:00 -3°C° 0 mm 6 mps 758 mmHg 80%
    10:00 -3°C° 0 mm 6 mps 758 mmHg 79%
    11:00 -3°C° 0 mm 6 mps 759 mmHg 77%
    12:00 -3°C° 0 mm 6 mps 759 mmHg 76%
    13:00 -3°C° 0 mm 6 mps 759 mmHg 76%
    14:00 -3°C° 0 mm 6 mps 759 mmHg 75%
    15:00 -4°C° 0 mm 6 mps 760 mmHg 76%
    16:00 -4°C° 0 mm 6 mps 760 mmHg 76%
    17:00 -4°C° 0 mm 5 mps 760 mmHg 76%
    18:00 -4°C° 0 mm 5 mps 761 mmHg 75%
    19:00 -4°C° 0 mm 5 mps 761 mmHg 74%
    20:00 -4°C° 0 mm 5 mps 761 mmHg 73%
    21:00 -4°C° 0 mm 5 mps 761 mmHg 73%
    22:00 -5°C° 0 mm 5 mps 761 mmHg 72%
    23:00 -5°C° 0 mm 5 mps 761 mmHg 72%

    20 December, Wednesday

    Time Temperature Precipitation Wind Pressure Humidity
    00:00 -4°C° 0 mm 4 mps 761 mmHg 72%
    01:00 -4°C° 0 mm 4 mps 761 mmHg 71%
    02:00 -4°C° 0 mm 4 mps 761 mmHg 70%
    03:00 -2°C° 0 mm 3 mps 761 mmHg 70%
    04:00 -2°C° 0 mm 3 mps 761 mmHg 69%
    05:00 -2°C° 0 mm 3 mps 761 mmHg 69%
    06:00 -2°C° 0 mm 3 mps 762 mmHg 69%
    07:00 -2°C° 0 mm 3 mps 762 mmHg 69%
    08:00 -2°C° 0 mm 2 mps 762 mmHg 69%
    09:00 -2°C° 0 mm 2 mps 762 mmHg 67%
    10:00 -2°C° 0 mm 2 mps 762 mmHg 65%
    11:00 -2°C° 0 mm 2 mps 762 mmHg 63%
    12:00 -2°C° 0 mm 2 mps 762 mmHg 63%
    13:00 -2°C° 0 mm 2 mps 762 mmHg 62%
    14:00 -2°C° 0 mm 2 mps 762 mmHg 62%
    15:00 0°C° 0 mm 1 mps 762 mmHg 64%
    16:00 0°C° 0 mm 1 mps 762 mmHg 66%
    17:00 0°C° 0 mm 1 mps 762 mmHg 68%
    18:00 0°C° 0 mm 1 mps 763 mmHg 68%
    19:00 0°C° 0 mm 1 mps 763 mmHg 68%
    20:00 0°C° 0 mm 1 mps 763 mmHg 68%
    21:00 0°C° 0 mm 1 mps 763 mmHg 67%
    22:00 0°C° 0 mm 1 mps 763 mmHg 67%
    23:00 0°C° 0 mm 1 mps 763 mmHg 67%

    21 December, Thursday

    Time Temperature Precipitation Wind Pressure Humidity
    00:00 0°C° 0 mm 1 mps 763 mmHg 66%
    01:00 0°C° 0 mm 1 mps 763 mmHg 66%
    02:00 0°C° 0 mm 1 mps 763 mmHg 66%
    03:00 -2°C° 0 mm 2 mps 763 mmHg 65%
    04:00 -3°C° 0 mm 2 mps 763 mmHg 65%
    05:00 -3°C° 0 mm 2 mps 763 mmHg 64%
    06:00 -3°C° 0 mm 2 mps 763 mmHg 64%
    07:00 -3°C° 0 mm 2 mps 763 mmHg 65%
    08:00 -3°C° 0 mm 2 mps 763 mmHg 65%
    09:00 -2°C° 0 mm 2 mps 763 mmHg 64%
    10:00 -2°C° 0 mm 3 mps 763 mmHg 62%
    11:00 -2°C° 0 mm 3 mps 763 mmHg 61%
    12:00 -2°C° 0 mm 3 mps 762 mmHg 61%
    13:00 -2°C° 0 mm 3 mps 762 mmHg 62%
    14:00 -2°C° 0 mm 3 mps 762 mmHg 62%
    15:00 -2°C° 0 mm 3 mps 762 mmHg 65%
    16:00 -2°C° 0 mm 3 mps 762 mmHg 69%
    17:00 -4°C° 0 mm 3 mps 762 mmHg 72%
    18:00 -4°C° 0 mm 3 mps 761 mmHg 75%
    19:00 -4°C° 0 mm 3 mps 761 mmHg 77%
    20:00 -5°C° 0 mm 3 mps 761 mmHg 80%
    21:00 -5°C° 0 mm 3 mps 761 mmHg 81%
    22:00 -4°C° 0 mm 2 mps 761 mmHg 82%
    23:00 -4°C° 0 mm 2 mps 760 mmHg 83%
    Show more